Weather History for Kalispell, MT

Change the Weather History Date:

Thursday, December 27, 2012

  Actual Average Record
Temperature  
Mean Temperature 24 °F 21 °F  
Max Temperature 27 °F 29 °F 55 °F (1898)
Min Temperature 20 °F 14 °F -20 °F (1983)
Degree Days  
Heating Degree Days 41 44  
Month to date heating degree days 961 1138  
Since 1 July heating degree days 2941 3342  
Cooling Degree Days 0 0  
Month to date cooling degree days 0 0  
Year to date cooling degree days 192 147  
Moisture  
Dew Point 20 °F    
Average Humidity 90    
Maximum Humidity 96    
Minimum Humidity 84    
Precipitation  
Precipitation 0.04 in 0.06 in 0.73 in (1990)
Month to date precipitation 1.18 1.36  
Year to date precipitation 20.32 16.79  
Snow  
Snow 1.20 in - - ()
Month to date snowfall 6.1  
Year to date snowfall 33.5  
Since 1 July snowfall 8.4  
Snow Depth 2.00 in    
Sea Level Pressure  
Sea Level Pressure 30.02 in    
Wind  
Wind Speed 0 mph (ESE)    
Max Wind Speed 12 mph    
Max Gust Speed 56 mph    
Visibility 5 miles    
Events Snow    
T = Trace of Precipitation, MM = Missing Value Source: NWS Daily Summary

Daily Weather History Graph

Daily Weather History Graph

Search for Another Location

Airport:

Trip Planner

Search our weather history database for the weather conditions in past years. The results will help you decide how hot, cold, wet, or windy it might be!

Date:

Astronomy

Dec. 27, 2012 Rise Set
Actual Time 8:27 AM MST 4:49 PM MST
Civil Twilight 7:51 AM MST 5:25 PM MST
Nautical Twilight 7:11 AM MST 6:05 PM MST
Astronomical Twilight 6:33 AM MST 6:43 PM MST
Moon 4:39 PM MST (12/27) 7:39 AM MST (12/27)
Length of Visible Light 9h 34m
Length of Day
8h 21m
Full, 100% of the Moon is Illuminated
Dec 27
Full
Dec 28
Full
Jan 4
Last Quarter
Jan 11
New
Jan 18
First Quarter

Hourly Weather History & Observations

Time (MST) Temp. Windchill Dew Point Humidity Pressure Visibility Wind Dir Wind Speed Gust Speed Precip Events Conditions
12:55 AM 23.0 °F - 19.0 °F 85% 29.98 in 10.0 mi Calm Calm - N/A   Overcast
1:55 AM 23.0 °F - 19.0 °F 85% 29.99 in 10.0 mi Calm Calm - N/A   Overcast
2:55 AM 23.0 °F - 19.9 °F 88% 30.00 in 10.0 mi Calm Calm - N/A   Overcast
3:55 AM 21.9 °F - 18.0 °F 85% 30.01 in 10.0 mi Calm Calm - N/A   Overcast
4:55 AM 23.0 °F - 19.0 °F 85% 30.01 in 5.0 mi Calm Calm - 0.00 in Snow Light Snow
5:55 AM 21.0 °F - 18.0 °F 88% 30.01 in 4.0 mi Calm Calm - 0.01 in Snow Light Snow
6:55 AM 19.9 °F - 18.0 °F 92% 30.03 in 7.0 mi Calm Calm - 0.00 in   Overcast
7:50 AM 21.2 °F - 19.4 °F 93% 29.92 in 1.0 mi Calm Calm - 0.00 in Snow Light Snow
7:55 AM 21.0 °F - 19.0 °F 92% 30.04 in 1.0 mi Calm Calm - 0.00 in Snow Light Snow
8:45 AM 21.2 °F - 19.4 °F 93% 29.93 in 2.0 mi Calm Calm - 0.01 in Snow Light Snow
8:55 AM 21.0 °F - 19.0 °F 92% 30.05 in 2.0 mi Calm Calm - 0.01 in Snow Light Snow
9:00 AM 21.2 °F - 19.4 °F 93% 29.94 in 3.0 mi Calm Calm - 0.00 in Snow Light Snow
9:55 AM 21.9 °F - 19.0 °F 89% 30.06 in 2.0 mi Calm Calm - 0.00 in Snow Light Snow
10:12 AM 23.0 °F - 19.4 °F 86% 29.95 in 1.0 mi Calm Calm - 0.01 in Snow Light Snow
10:20 AM 23.0 °F - 19.4 °F 86% 29.96 in 1.0 mi Calm Calm - 0.01 in Snow Light Snow
10:21 AM 23.0 °F - 19.4 °F 86% 29.96 in 0.8 mi Calm Calm - 0.01 in Snow Light Snow
10:55 AM 23.0 °F - 21.0 °F 92% 30.07 in 0.8 mi Calm Calm - 0.01 in Snow Light Snow
11:02 AM 23.0 °F - 21.2 °F 93% 29.96 in 1.2 mi Calm Calm - 0.00 in Snow Light Snow
11:18 AM 24.8 °F - 21.2 °F 86% 29.96 in 2.0 mi Calm Calm - 0.01 in Snow Light Snow
11:21 AM 24.8 °F - 21.2 °F 86% 29.96 in 3.0 mi Calm Calm - 0.01 in Snow Light Snow
11:55 AM 25.0 °F - 21.9 °F 88% 30.06 in 6.0 mi Calm Calm - 0.01 in Snow Light Snow
12:55 PM 26.1 °F - 21.9 °F 84% 30.05 in 9.0 mi Calm Calm - 0.00 in   Overcast
1:55 PM 25.0 °F - 21.9 °F 88% 30.05 in 5.0 mi Calm Calm - 0.00 in Snow Light Snow
2:55 PM 25.0 °F - 21.9 °F 88% 30.06 in 4.0 mi Calm Calm - 0.00 in Snow Light Snow
3:55 PM 26.1 °F - 21.9 °F 84% 30.07 in 8.0 mi Calm Calm - 0.00 in   Overcast
4:51 PM 26.6 °F - 23.0 °F 86% 29.96 in 5.0 mi Calm Calm - 0.00 in Snow Light Snow
4:55 PM 25.0 °F - 23.0 °F 92% 30.07 in 5.0 mi Calm Calm - 0.00 in Snow Light Snow
5:55 PM 25.0 °F - 23.0 °F 92% 30.09 in 9.0 mi Calm Calm - 0.00 in Snow Light Snow
6:55 PM 25.0 °F 20.7 °F 23.0 °F 92% 30.09 in 9.0 mi South 3.5 mph - 0.00 in Snow Light Snow
7:55 PM 24.1 °F - 21.9 °F 91% 30.10 in 9.0 mi Calm Calm - 0.00 in Snow Light Snow
8:55 PM 24.1 °F 16.0 °F 21.0 °F 88% 30.09 in 9.0 mi NE 6.9 mph - 0.00 in Snow Light Snow
9:55 PM 23.0 °F - 21.9 °F 96% 30.09 in 10.0 mi Calm Calm - 0.00 in   Overcast
10:55 PM 21.0 °F - 19.9 °F 96% 30.10 in 8.0 mi Calm Calm - N/A   Overcast
11:55 PM 23.0 °F - 21.0 °F 92% 30.11 in 10.0 mi Calm Calm - N/A   Overcast